Date,TemperatureHighF,TemperatureAvgF,TemperatureLowF,DewpointHighF,DewpointAvgF,DewpointLowF,HumidityHigh,HumidityAvg,HumidityLow,PressureMaxIn,PressureMinIn,WindSpeedMaxMPH,WindSpeedAvgMPH,GustSpeedMaxMPH,PrecipitationSumIn
2013-3-1,48,37,29,34,26,20,86,66,45,30.08,29.74,4,1,5,0.01
2013-3-2,41,36,32,24,22,18,63,57,50,30.10,29.84,6,1,7,0.00
2013-3-3,39,32,28,27,21,16,70,61,55,30.06,29.78,6,1,6,0.00
2013-3-4,38,31,26,21,16,12,59,53,45,30.17,29.90,5,2,100,0.00
2013-3-5,45,37,29,24,21,15,63,52,43,30.48,30.07,4,1,8,0.00
2013-3-6,40,36,33,31,26,22,80,67,55,30.54,30.22,8,2,10,0.00
2013-3-7,38,34,31,29,25,22,82,70,57,30.53,30.22,6,2,9,0.05
2013-3-8,40,35,31,27,25,19,81,67,51,30.60,30.19,5,1,6,0.15
2013-3-9,57,39,24,32,18,12,78,47,19,30.63,30.41,6,1,29,0.00
2013-3-10,51,36,24,30,22,16,75,59,34,30.79,29.61,4,1,5,0.00
2013-3-11,49,42,35,38,32,27,78,68,58,29.73,29.42,4,2,6,0.00
2013-3-12,52,47,41,50,44,36,93,88,78,29.55,29.03,4,1,8,0.87
2013-3-13,49,41,32,36,24,12,84,56,26,29.34,29.11,5,1,6,0.00
2013-3-14,36,29,24,20,8,-2,53,40,25,29.47,29.14,7,2,7,0.00
2013-3-15,40,31,22,27,10,-5,76,42,21,29.46,29.01,8,3,11,0.00
2013-3-16,39,32,25,20,8,3,56,36,24,29.40,29.09,4,1,5,0.00
2013-3-17,37,31,23,12,3,-6,52,32,20,29.72,29.24,6,2,8,0.00
2013-3-18,39,29,16,20,2,-6,69,32,20,29.98,29.49,5,1,7,0.00
2013-3-19,34,31,28,29,26,20,85,82,70,29.60,29.02,2,0,4,0.00
2013-3-20,36,30,24,26,17,14,83,57,43,29.31,29.01,8,1,9,0.07
2013-3-21,40,29,16,19,11,5,72,50,26,29.38,28.97,4,1,98,0.05
2013-3-22,39,31,20,21,15,10,66,52,42,29.29,29.00,7,2,8,0.09
2013-3-23,41,35,29,20,17,14,64,49,34,29.33,29.05,7,2,11,0.04
2013-3-24,45,38,30,22,19,15,59,48,35,29.42,29.07,6,1,6,0.00
2013-3-25,45,38,29,26,22,18,69,53,37,29.32,28.83,8,1,12,0.00
2013-3-26,47,39,30,30,22,14,73,52,28,29.34,28.93,3,0,4,0.00
2013-3-27,55,38,25,33,22,16,68,56,24,30.00,29.32,4,1,5,0.00
2013-3-28,51,43,36,34,29,27,81,59,43,30.22,29.78,4,0,4,0.01
2013-3-29,59,45,32,34,28,23,77,53,28,30.12,29.83,5,1,8,0.00
2013-3-30,58,46,30,31,22,14,74,43,20,30.14,29.87,4,1,7,0.00
2013-3-31,57,43,28,39,26,20,85,55,25,30.19,29.59,7,1,10,0.08